This is the latest recevied weather packets stored in our database for station/object KC3AWA. If no packets are shown the sender has not sent any weather packets the latest 10 day(s).
| Time | Temp. | Humidity | Pressure | Rain* | Wind** | Luminosity | Snow |
|---|---|---|---|---|---|---|---|
| 1778110185 | 8.33° C | 56% | 1014.1 hPa | 0 mm | - | 16 W/m² | - |
| 1778109882 | 8.33° C | 58% | 1013.9 hPa | 0 mm | - | 16 W/m² | - |
| 1778109578 | 8.33° C | 55% | 1013.7 hPa | 0 mm | - | 17 W/m² | - |
| 1778109275 | 8.33° C | 56% | 1013.9 hPa | 0 mm | - | 19 W/m² | - |
| 1778108972 | 8.89° C | 55% | 1013.7 hPa | 0 mm | - | 24 W/m² | - |
| 1778108669 | 8.89° C | 55% | 1013.7 hPa | 0 mm | - | 29 W/m² | - |
| 1778108365 | 8.89° C | 54% | 1013.6 hPa | 0 mm | - | 31 W/m² | - |
| 1778108063 | 8.89° C | 52% | 1013.6 hPa | 0 mm | - | 30 W/m² | - |
| 1778107760 | 8.89° C | 55% | 1013.2 hPa | 0 mm | - | 28 W/m² | - |
| 1778107457 | 8.89° C | 52% | 1013.3 hPa | 0 mm | - | 46 W/m² | - |
| 1778107153 | 9.44° C | 53% | 1013.3 hPa | 0 mm | - | 33 W/m² | - |
| 1778106849 | 9.44° C | 53% | 1013.3 hPa | 0 mm | - | 39 W/m² | - |
| 1778106546 | 9.44° C | 53% | 1013.2 hPa | 0 mm | - | 36 W/m² | - |
| 1778106242 | 9.44° C | 53% | 1013.1 hPa | 0 mm | - | 43 W/m² | - |
| 1778105940 | 10° C | 51% | 1013.1 hPa | 0 mm | - | 44 W/m² | - |
| 1778105637 | 10° C | 53% | 1013.1 hPa | 0 mm | - | 65 W/m² | - |
| 1778105334 | 10° C | 54% | 1012.8 hPa | 0 mm | - | 70 W/m² | - |
| 1778105029 | 10° C | 52% | 1012.8 hPa | 0 mm | - | 50 W/m² | - |
| 1778104726 | 10° C | 53% | 1012.9 hPa | 0 mm | - | 51 W/m² | - |
| 1778104422 | 10° C | 56% | 1012.7 hPa | 0 mm | - | 98 W/m² | - |
| 1778104118 | 10.56° C | 53% | 1012.9 hPa | 0 mm | - | 105 W/m² | - |
| 1778103815 | 10° C | 52% | 1012.8 hPa | 0 mm | - | 128 W/m² | - |
| 1778103514 | 10° C | 54% | 1012.5 hPa | 0 mm | - | 124 W/m² | - |
| 1778103211 | 10° C | 52% | 1012.5 hPa | 0 mm | - | 96 W/m² | - |
| 1778102908 | 10° C | 53% | 1012.4 hPa | 0 mm | - | 118 W/m² | - |
* Rain latest hour (hover to see other rain measurements)
** Current wind speed in m/s (hover to see current wind gust speed)